Вернуться в каталог

DELTA 1 DEB

АктивенPO
NORAD 1312·DEBRIS·🇺🇸 United States

Запущен Jan 22, 1965 с Cape Canaveral Space Force Station

Loading…

Ближайшие Пролёты (ближайшие 24 часа)

TLE

СвежийSource: Space-Track

Эпоха: Sep 13, 2026, 07:15 UTC

1 01312U 65004C   26256.30274188 -.00000006  00000-0  16811-4 0  9994
2 01312  96.3423 211.4991 1114896 278.2341  69.4025 12.28282895737404

Отслеживайте DELTA 1 DEB в реальном времени с AllMySat

Download on the App Store